Location: Milo
(50.5667°N, 112.8833°W)
Time: 12:03:08
(UTC+00:00)

N. Korean satellite - Pass Details

Date: 05 December 2021
Orbit: 447 x 490 km, 97.3° (Epoch: 27 January)

Event Time Altitude Azimuth Distance (km) Brightness Sun altitude
Rises 12:10:13 0° 23° (NNE) 2,470 10.4 -28.4°
Reaches altitude 10° 12:12:32 10° 38° (NE) 1,588 9.6 -28.1°
Maximum altitude 12:15:21 24° 95° (E) 974 8.7 -27.6°
Drops below altitude 10° 12:18:09 10° 151° (SSE) 1,573 9.5 -27.2°
Sets 12:20:26 0° 166° (SSE) 2,440 10.3 -26.8°
